Station Historical Data
Daily Summary for March 11, 2017 Units:  English    Metric   Both
Next Day »
Daily Weekly Monthly Yearly Custom
  High: Low: Average:
Temperature: 67.3 °F 48.4 °F 55.9 °F
Dew Point: 49.0 °F 40.2 °F 44.5 °F
Humidity: 81% 42% 67%
Wind Speed: 8.0mph 0.0mph 1mph
Wind Gust: 12.0mph - -
Wind- - SSE
Pressure: 30.22 in 30.14 in -
Precipitation: 0.00 in    
Historical Graphs
 
 
Tabular Data for March 11, 2017
Time Temperature Dew Point Pressure Wind Wind Speed Wind Gust Humidity Rainfall Rate (Hourly) solar Conditions
00:01 50.6 °F 44.0 °F 30.15 in Calm     78% 0.00 in 0.00 W/m2
00:06 50.6 °F 44.0 °F 30.15 in ESE 4.0 mph 5.0 mph 78% 0.00 in 0.00 W/m2
00:11 50.5 °F 43.9 °F 30.15 in Calm   9.0 mph 78% 0.00 in 0.00 W/m2
00:16 50.5 °F 43.9 °F 30.15 in ESE 4.0 mph 4.0 mph 78% 0.00 in 0.00 W/m2
00:21 50.4 °F 44.1 °F 30.15 in ESE 6.0 mph 9.0 mph 79% 0.00 in 0.00 W/m2
00:26 50.4 °F 43.8 °F 30.15 in ESE 1.0 mph 7.0 mph 78% 0.00 in 0.00 W/m2
00:31 50.3 °F 43.7 °F 30.14 in ESE 2.0 mph 5.0 mph 78% 0.00 in 0.00 W/m2
00:36 50.3 °F 43.4 °F 30.15 in ESE 1.0 mph 4.0 mph 77% 0.00 in 0.00 W/m2
00:41 50.3 °F 43.4 °F 30.15 in ESE 5.0 mph 7.0 mph 77% 0.00 in 0.00 W/m2
00:46 50.3 °F 43.4 °F 30.15 in East 2.0 mph 2.0 mph 77% 0.00 in 0.00 W/m2
00:51 50.3 °F 43.0 °F 30.14 in East 8.0 mph 8.0 mph 76% 0.00 in 0.00 W/m2
00:56 50.3 °F 43.0 °F 30.14 in ESE 1.0 mph 5.0 mph 76% 0.00 in 0.00 W/m2
01:01 50.4 °F 43.1 °F 30.15 in ESE 5.0 mph 5.0 mph 76% 0.00 in 0.00 W/m2
01:06 50.4 °F 43.1 °F 30.14 in East 2.0 mph 2.0 mph 76% 0.00 in 0.00 W/m2
01:11 50.4 °F 42.8 °F 30.14 in ESE 4.0 mph 5.0 mph 75% 0.00 in 0.00 W/m2
01:16 50.5 °F 43.2 °F 30.14 in ESE 4.0 mph 5.0 mph 76% 0.00 in 0.00 W/m2
01:21 50.5 °F 42.9 °F 30.15 in ESE 1.0 mph 5.0 mph 75% 0.00 in 0.00 W/m2
01:26 50.5 °F 42.9 °F 30.15 in ESE 1.0 mph 5.0 mph 75% 0.00 in 0.00 W/m2
01:31 50.5 °F 42.9 °F 30.15 in Calm   4.0 mph 75% 0.00 in 0.00 W/m2
01:36 50.5 °F 42.9 °F 30.15 in Calm   1.0 mph 75% 0.00 in 0.00 W/m2
01:41 50.5 °F 42.9 °F 30.15 in ESE 1.0 mph 4.0 mph 75% 0.00 in 0.00 W/m2
01:46 50.5 °F 42.9 °F 30.15 in Calm   1.0 mph 75% 0.00 in 0.00 W/m2
01:51 50.4 °F 42.8 °F 30.15 in Calm     75% 0.00 in 0.00 W/m2
01:57 50.4 °F 42.8 °F 30.15 in ESE 2.0 mph 4.0 mph 75% 0.00 in 0.00 W/m2
02:02 50.3 °F 42.3 °F 30.15 in ESE 5.0 mph 6.0 mph 74% 0.00 in 0.00 W/m2
02:07 50.2 °F 42.6 °F 30.15 in Calm   4.0 mph 75% 0.00 in 0.00 W/m2
02:12 50.1 °F 42.2 °F 30.15 in Calm   2.0 mph 74% 0.00 in 0.00 W/m2
02:17 50.1 °F 42.2 °F 30.15 in ESE 1.0 mph 1.0 mph 74% 0.00 in 0.00 W/m2
02:22 50.1 °F 42.5 °F 30.15 in Calm     75% 0.00 in 0.00 W/m2
02:27 50.0 °F 42.4 °F 30.15 in Calm     75% 0.00 in 0.00 W/m2
02:32 49.9 °F 42.0 °F 30.15 in Calm   1.0 mph 74% 0.00 in 0.00 W/m2
02:37 49.9 °F 42.3 °F 30.15 in Calm   4.0 mph 75% 0.00 in 0.00 W/m2
02:42 49.7 °F 41.8 °F 30.15 in ESE 5.0 mph 6.0 mph 74% 0.00 in 0.00 W/m2
02:47 49.7 °F 42.1 °F 30.15 in ESE 1.0 mph 2.0 mph 75% 0.00 in 0.00 W/m2
02:52 49.6 °F 42.0 °F 30.15 in Calm   2.0 mph 75% 0.00 in 0.00 W/m2
02:57 49.4 °F 42.2 °F 30.15 in Calm   4.0 mph 76% 0.00 in 0.00 W/m2
03:02 49.4 °F 42.2 °F 30.14 in ESE 5.0 mph 5.0 mph 76% 0.00 in 0.00 W/m2
03:07 49.2 °F 42.0 °F 30.14 in ESE 2.0 mph 5.0 mph 76% 0.00 in 0.00 W/m2
03:12 49.1 °F 41.9 °F 30.15 in ESE 2.0 mph 5.0 mph 76% 0.00 in 0.00 W/m2
03:17 49.0 °F 41.8 °F 30.15 in Calm   5.0 mph 76% 0.00 in 0.00 W/m2
03:22 48.9 °F 41.7 °F 30.15 in ESE 4.0 mph 4.0 mph 76% 0.00 in 0.00 W/m2
03:27 48.8 °F 41.6 °F 30.15 in Calm   4.0 mph 76% 0.00 in 0.00 W/m2
03:32 48.6 °F 41.4 °F 30.14 in ESE 2.0 mph 5.0 mph 76% 0.00 in 0.00 W/m2
03:37 48.5 °F 41.6 °F 30.15 in ESE 4.0 mph 5.0 mph 77% 0.00 in 0.00 W/m2
03:42 48.5 °F 41.6 °F 30.15 in ESE 2.0 mph 6.0 mph 77% 0.00 in 0.00 W/m2
03:47 48.4 °F 41.2 °F 30.15 in ESE 1.0 mph 6.0 mph 76% 0.00 in 0.00 W/m2
03:52 48.4 °F 41.2 °F 30.15 in ESE 4.0 mph 4.0 mph 76% 0.00 in 0.00 W/m2
03:57 48.4 °F 41.2 °F 30.15 in ESE 1.0 mph 5.0 mph 76% 0.00 in 0.00 W/m2
04:02 48.4 °F 41.2 °F 30.15 in ESE 2.0 mph 5.0 mph 76% 0.00 in 0.00 W/m2
04:07 48.4 °F 41.2 °F 30.15 in ESE 2.0 mph 7.0 mph 76% 0.00 in 0.00 W/m2
04:12 48.4 °F 41.2 °F 30.15 in ESE 2.0 mph 4.0 mph 76% 0.00 in 0.00 W/m2
04:17 48.4 °F 40.8 °F 30.15 in ESE 5.0 mph 9.0 mph 75% 0.00 in 0.00 W/m2
04:22 48.5 °F 41.0 °F 30.15 in ESE 4.0 mph 6.0 mph 75% 0.00 in 0.00 W/m2
04:27 48.5 °F 41.0 °F 30.15 in Calm   6.0 mph 75% 0.00 in 0.00 W/m2
04:33 48.5 °F 40.6 °F 30.15 in Calm   4.0 mph 74% 0.00 in 0.00 W/m2
04:37 48.5 °F 40.6 °F 30.15 in ESE 1.0 mph 6.0 mph 74% 0.00 in 0.00 W/m2
04:42 48.6 °F 40.7 °F 30.15 in ESE 1.0 mph 5.0 mph 74% 0.00 in 0.00 W/m2
04:48 48.5 °F 40.6 °F 30.15 in ESE 1.0 mph 4.0 mph 74% 0.00 in 0.00 W/m2
04:53 48.5 °F 40.6 °F 30.15 in ESE 5.0 mph 7.0 mph 74% 0.00 in 0.00 W/m2
04:58 48.5 °F 40.6 °F 30.15 in ESE 2.0 mph 11.0 mph 74% 0.00 in 0.00 W/m2
05:03 48.5 °F 40.6 °F 30.15 in ESE 1.0 mph 7.0 mph 74% 0.00 in 0.00 W/m2
05:08 48.5 °F 40.6 °F 30.15 in East 7.0 mph 7.0 mph 74% 0.00 in 0.00 W/m2
05:13 48.5 °F 40.6 °F 30.15 in ESE 1.0 mph 9.0 mph 74% 0.00 in 0.00 W/m2
05:18 48.5 °F 40.2 °F 30.15 in ESE 2.0 mph 12.0 mph 73% 0.00 in 0.00 W/m2
05:23 48.5 °F 40.6 °F 30.15 in ESE 2.0 mph 5.0 mph 74% 0.00 in 0.00 W/m2
05:28 48.6 °F 40.3 °F 30.15 in East 4.0 mph 6.0 mph 73% 0.00 in 0.00 W/m2
05:33 48.6 °F 40.7 °F 30.15 in East 5.0 mph 5.0 mph 74% 0.00 in 0.00 W/m2
05:38 48.7 °F 40.8 °F 30.15 in ESE 5.0 mph 8.0 mph 74% 0.00 in 0.00 W/m2
05:43 48.7 °F 40.5 °F 30.15 in ESE 7.0 mph 7.0 mph 73% 0.00 in 0.00 W/m2
05:48 48.8 °F 40.9 °F 30.14 in Calm   9.0 mph 74% 0.00 in 0.00 W/m2
05:53 48.8 °F 40.5 °F 30.15 in East 2.0 mph 7.0 mph 73% 0.00 in 0.00 W/m2
05:58 48.8 °F 40.5 °F 30.15 in Calm   4.0 mph 73% 0.00 in 0.00 W/m2
06:03 48.8 °F 40.2 °F 30.15 in East 2.0 mph 4.0 mph 72% 0.00 in 0.00 W/m2
06:08 48.8 °F 40.2 °F 30.15 in Calm   5.0 mph 72% 0.00 in 0.00 W/m2
06:13 48.9 °F 40.3 °F 30.15 in East 1.0 mph 5.0 mph 72% 0.00 in 0.00 W/m2
06:18 48.9 °F 40.3 °F 30.16 in Calm   9.0 mph 72% 0.00 in 0.00 W/m2
06:23 48.9 °F 40.3 °F 30.16 in East 2.0 mph 6.0 mph 72% 0.00 in 7.00 W/m2
06:28 48.9 °F 40.6 °F 30.16 in East 2.0 mph 4.0 mph 73% 0.00 in 11.00 W/m2
06:33 48.9 °F 40.6 °F 30.16 in Calm   6.0 mph 73% 0.00 in 16.00 W/m2
06:38 48.9 °F 40.6 °F 30.16 in Calm   2.0 mph 73% 0.00 in 23.00 W/m2
06:43 48.8 °F 40.5 °F 30.16 in Calm   2.0 mph 73% 0.00 in 30.00 W/m2
06:48 48.8 °F 40.2 °F 30.16 in East 2.0 mph 5.0 mph 72% 0.00 in 39.00 W/m2
06:53 48.8 °F 40.5 °F 30.17 in Calm   6.0 mph 73% 0.00 in 58.00 W/m2
06:58 48.9 °F 40.6 °F 30.17 in Calm   4.0 mph 73% 0.00 in 77.00 W/m2
07:03 48.9 °F 40.6 °F 30.17 in Calm   4.0 mph 73% 0.00 in 76.00 W/m2
07:08 49.0 °F 41.1 °F 30.17 in Calm   6.0 mph 74% 0.00 in 90.00 W/m2
07:13 49.1 °F 41.2 °F 30.17 in ESE 2.0 mph 5.0 mph 74% 0.00 in 111.00 W/m2
07:18 49.2 °F 41.6 °F 30.17 in Calm   5.0 mph 75% 0.00 in 95.00 W/m2
07:23 49.2 °F 41.3 °F 30.17 in Calm   5.0 mph 74% 0.00 in 90.00 W/m2
07:28 49.3 °F 41.4 °F 30.17 in ESE 2.0 mph 4.0 mph 74% 0.00 in 123.00 W/m2
07:33 49.4 °F 41.5 °F 30.17 in ESE 1.0 mph 6.0 mph 74% 0.00 in 178.00 W/m2
07:38 49.5 °F 41.6 °F 30.17 in Calm   5.0 mph 74% 0.00 in 179.00 W/m2
07:43 49.6 °F 41.7 °F 30.18 in Calm   4.0 mph 74% 0.00 in 274.00 W/m2
07:48 49.8 °F 42.2 °F 30.18 in Calm   1.0 mph 75% 0.00 in 288.00 W/m2
07:53 49.9 °F 42.7 °F 30.18 in Calm   2.0 mph 76% 0.00 in 308.00 W/m2
07:58 50.0 °F 42.7 °F 30.18 in Calm   1.0 mph 76% 0.00 in 211.00 W/m2
08:03 50.2 °F 43.3 °F 30.18 in Calm   2.0 mph 77% 0.00 in 185.00 W/m2
08:08 50.5 °F 43.6 °F 30.18 in Calm   4.0 mph 77% 0.00 in 202.00 W/m2
08:13 50.7 °F 44.1 °F 30.18 in Calm   5.0 mph 78% 0.00 in 202.00 W/m2
08:18 50.9 °F 43.6 °F 30.18 in ESE 5.0 mph 5.0 mph 76% 0.00 in 186.00 W/m2
08:23 51.2 °F 44.2 °F 30.19 in ESE 2.0 mph 5.0 mph 77% 0.00 in 176.00 W/m2
08:28 51.4 °F 44.1 °F 30.19 in Calm   2.0 mph 76% 0.00 in 179.00 W/m2
08:33 51.7 °F 44.7 °F 30.19 in Calm   2.0 mph 77% 0.00 in 220.00 W/m2
08:38 51.9 °F 44.9 °F 30.19 in Calm     77% 0.00 in 294.00 W/m2
08:43 52.3 °F 45.7 °F 30.20 in Calm     78% 0.00 in 359.00 W/m2
08:49 52.7 °F 46.0 °F 30.19 in Calm     78% 0.00 in 251.00 W/m2
08:54 53.0 °F 46.7 °F 30.19 in Calm     79% 0.00 in 220.00 W/m2
08:59 53.3 °F 47.0 °F 30.20 in Calm     79% 0.00 in 258.00 W/m2
09:04 53.6 °F 47.6 °F 30.20 in Calm     80% 0.00 in 295.00 W/m2
09:09 53.8 °F 47.8 °F 30.20 in Calm     80% 0.00 in 362.00 W/m2
09:14 54.0 °F 48.3 °F 30.19 in Calm     81% 0.00 in 383.00 W/m2
09:19 54.4 °F 48.7 °F 30.20 in Calm     81% 0.00 in 378.00 W/m2
09:24 54.7 °F 49.0 °F 30.20 in Calm     81% 0.00 in 461.00 W/m2
09:29 55.0 °F 48.6 °F 30.20 in Calm     79% 0.00 in 441.00 W/m2
09:34 55.2 °F 46.7 °F 30.20 in Calm     73% 0.00 in 512.00 W/m2
09:39 56.0 °F 47.5 °F 30.20 in Calm     73% 0.00 in 533.00 W/m2
09:44 56.9 °F 48.0 °F 30.21 in Calm     72% 0.00 in 459.00 W/m2
09:49 57.6 °F 48.3 °F 30.21 in Calm     71% 0.00 in 603.00 W/m2
09:54 58.2 °F 48.8 °F 30.21 in Calm     71% 0.00 in 638.00 W/m2
09:59 58.3 °F 47.4 °F 30.21 in Calm     67% 0.00 in 647.00 W/m2
10:04 58.5 °F 44.7 °F 30.21 in Calm     60% 0.00 in 659.00 W/m2
10:09 58.9 °F 41.8 °F 30.21 in Calm     53% 0.00 in 446.00 W/m2
10:14 59.3 °F 42.2 °F 30.21 in Calm   4.0 mph 53% 0.00 in 580.00 W/m2
10:19 59.6 °F 42.0 °F 30.21 in Calm     52% 0.00 in 645.00 W/m2
10:24 59.9 °F 43.2 °F 30.21 in ESE 2.0 mph 4.0 mph 54% 0.00 in 671.00 W/m2
10:29 60.2 °F 43.0 °F 30.21 in Calm     53% 0.00 in 640.00 W/m2
10:34 60.5 °F 42.3 °F 30.22 in East 4.0 mph 6.0 mph 51% 0.00 in 694.00 W/m2
10:39 60.9 °F 41.6 °F 30.21 in Calm   2.0 mph 49% 0.00 in 733.00 W/m2
10:44 61.3 °F 43.5 °F 30.21 in Calm   4.0 mph 52% 0.00 in 765.00 W/m2
10:49 61.9 °F 41.5 °F 30.21 in Calm   4.0 mph 47% 0.00 in 772.00 W/m2
10:54 62.3 °F 42.9 °F 30.21 in Calm   2.0 mph 49% 0.00 in 795.00 W/m2
10:59 62.9 °F 43.5 °F 30.21 in East 1.0 mph 4.0 mph 49% 0.00 in 793.00 W/m2
11:04 63.3 °F 43.3 °F 30.20 in East 2.0 mph 4.0 mph 48% 0.00 in 800.00 W/m2
11:09 63.7 °F 43.1 °F 30.20 in East 2.0 mph 4.0 mph 47% 0.00 in 814.00 W/m2
11:14 64.0 °F 43.9 °F 30.20 in East 2.0 mph 4.0 mph 48% 0.00 in 756.00 W/m2
11:19 64.3 °F 44.8 °F 30.20 in East 2.0 mph 7.0 mph 49% 0.00 in 744.00 W/m2
11:24 64.5 °F 46.0 °F 30.20 in ESE 5.0 mph 9.0 mph 51% 0.00 in 598.00 W/m2
11:29 64.5 °F 46.5 °F 30.20 in Calm   6.0 mph 52% 0.00 in 457.00 W/m2
11:34 64.4 °F 46.4 °F 30.20 in SE 6.0 mph 6.0 mph 52% 0.00 in 714.00 W/m2
11:39 64.3 °F 46.3 °F 30.20 in SSE 1.0 mph 4.0 mph 52% 0.00 in 847.00 W/m2
11:44 64.2 °F 46.2 °F 30.20 in Calm   1.0 mph 52% 0.00 in 837.00 W/m2
11:49 64.3 °F 45.3 °F 30.20 in WNW 1.0 mph 7.0 mph 50% 0.00 in 824.00 W/m2
11:54 64.4 °F 44.3 °F 30.20 in WNW 2.0 mph 4.0 mph 48% 0.00 in 812.00 W/m2
11:59 64.5 °F 43.3 °F 30.20 in Calm   4.0 mph 46% 0.00 in 795.00 W/m2
12:04 64.7 °F 44.6 °F 30.20 in WNW 1.0 mph 3.0 mph 48% 0.00 in 809.00 W/m2
12:09 64.9 °F 43.1 °F 30.20 in WNW 1.0 mph 3.0 mph 45% 0.00 in 807.00 W/m2
12:14 65.0 °F 44.3 °F 30.20 in WNW 2.0 mph 3.0 mph 47% 0.00 in 805.00 W/m2
12:19 65.2 °F 45.0 °F 30.20 in NW 1.0 mph 9.0 mph 48% 0.00 in 802.00 W/m2
12:24 65.4 °F 44.7 °F 30.20 in NW 3.0 mph 7.0 mph 47% 0.00 in 802.00 W/m2
12:29 65.6 °F 46.0 °F 30.20 in NW 1.0 mph 7.0 mph 49% 0.00 in 802.00 W/m2
12:34 65.7 °F 46.0 °F 30.20 in Calm   4.0 mph 49% 0.00 in 796.00 W/m2
12:39 65.9 °F 43.4 °F 30.20 in NW 3.0 mph 9.0 mph 44% 0.00 in 795.00 W/m2
12:44 65.9 °F 42.2 °F 30.20 in Calm   7.0 mph 42% 0.00 in 791.00 W/m2
12:49 66.1 °F 44.2 °F 30.20 in Calm   2.0 mph 45% 0.00 in 793.00 W/m2
12:54 66.3 °F 45.5 °F 30.20 in WNW 1.0 mph 5.0 mph 47% 0.00 in 786.00 W/m2
12:59 66.6 °F 44.6 °F 30.20 in WNW 6.0 mph 6.0 mph 45% 0.00 in 786.00 W/m2
13:04 66.7 °F 44.1 °F 30.20 in Calm   5.0 mph 44% 0.00 in 779.00 W/m2
13:09 66.7 °F 45.3 °F 30.19 in WNW 1.0 mph 5.0 mph 46% 0.00 in 779.00 W/m2
13:14 66.9 °F 46.6 °F 30.19 in Calm   7.0 mph 48% 0.00 in 765.00 W/m2
13:19 67.1 °F 46.2 °F 30.19 in NW 1.0 mph 1.0 mph 47% 0.00 in 733.00 W/m2
13:24 67.1 °F 46.2 °F 30.19 in SW 1.0 mph 5.0 mph 47% 0.00 in 650.00 W/m2
13:29 67.2 °F 47.4 °F 30.19 in West 5.0 mph 8.0 mph 49% 0.00 in 679.00 W/m2
13:34 67.2 °F 46.3 °F 30.19 in WSW 4.0 mph 5.0 mph 47% 0.00 in 754.00 W/m2
13:39 67.3 °F 47.0 °F 30.19 in WSW 4.0 mph 9.0 mph 48% 0.00 in 731.00 W/m2
13:44 67.3 °F 46.4 °F 30.19 in WNW 2.0 mph 9.0 mph 47% 0.00 in 647.00 W/m2
13:50 67.2 °F 48.0 °F 30.19 in Calm   10.0 mph 50% 0.00 in 666.00 W/m2
13:55 67.2 °F 48.5 °F 30.19 in West 1.0 mph 8.0 mph 51% 0.00 in 744.00 W/m2
14:00 67.2 °F 46.9 °F 30.18 in Calm   1.0 mph 48% 0.00 in 689.00 W/m2
14:05 67.1 °F 47.3 °F 30.18 in Calm   9.0 mph 49% 0.00 in 628.00 W/m2
14:10 67.0 °F 47.2 °F 30.18 in Calm   8.0 mph 49% 0.00 in 700.00 W/m2
14:15 67.0 °F 47.2 °F 30.18 in WSW 7.0 mph 9.0 mph 49% 0.00 in 668.00 W/m2
14:20 67.0 °F 47.8 °F 30.18 in Calm   9.0 mph 50% 0.00 in 680.00 W/m2
14:25 67.0 °F 46.1 °F 30.18 in WSW 1.0 mph 8.0 mph 47% 0.00 in 492.00 W/m2
14:30 67.0 °F 46.7 °F 30.18 in Calm   6.0 mph 48% 0.00 in 432.00 W/m2
14:35 67.0 °F 47.2 °F 30.18 in WSW 5.0 mph 6.0 mph 49% 0.00 in 487.00 W/m2
14:40 66.9 °F 46.6 °F 30.18 in WSW 1.0 mph 1.0 mph 48% 0.00 in 508.00 W/m2
14:45 66.8 °F 46.5 °F 30.18 in Calm   6.0 mph 48% 0.00 in 524.00 W/m2
14:50 66.8 °F 46.5 °F 30.18 in WSW 5.0 mph 7.0 mph 48% 0.00 in 343.00 W/m2
14:55 66.7 °F 45.8 °F 30.18 in Calm   7.0 mph 47% 0.00 in 411.00 W/m2
15:00 66.5 °F 46.8 °F 30.18 in Calm   6.0 mph 49% 0.00 in 352.00 W/m2
15:05 66.3 °F 47.1 °F 30.17 in Calm     50% 0.00 in 519.00 W/m2
15:10 66.2 °F 47.6 °F 30.17 in Calm   6.0 mph 51% 0.00 in 503.00 W/m2
15:15 66.1 °F 46.9 °F 30.17 in WSW 5.0 mph 8.0 mph 50% 0.00 in 489.00 W/m2
15:20 66.0 °F 46.3 °F 30.17 in WSW 1.0 mph 7.0 mph 49% 0.00 in 480.00 W/m2
15:25 66.0 °F 46.8 °F 30.17 in Calm   6.0 mph 50% 0.00 in 459.00 W/m2
15:30 65.9 °F 46.8 °F 30.17 in Calm   7.0 mph 50% 0.00 in 464.00 W/m2
15:35 66.0 °F 47.4 °F 30.16 in West 7.0 mph 9.0 mph 51% 0.00 in 410.00 W/m2
15:40 65.9 °F 47.8 °F 30.16 in Calm   7.0 mph 52% 0.00 in 418.00 W/m2
15:45 65.8 °F 47.2 °F 30.16 in West 2.0 mph 2.0 mph 51% 0.00 in 413.00 W/m2
15:50 65.8 °F 47.2 °F 30.16 in Calm   1.0 mph 51% 0.00 in 348.00 W/m2
15:55 65.7 °F 47.1 °F 30.16 in West 1.0 mph 7.0 mph 51% 0.00 in 332.00 W/m2
16:00 65.7 °F 47.1 °F 30.16 in Calm   7.0 mph 51% 0.00 in 274.00 W/m2
16:05 65.6 °F 47.5 °F 30.16 in Calm   2.0 mph 52% 0.00 in 135.00 W/m2
16:10 65.5 °F 48.4 °F 30.16 in Calm     54% 0.00 in 230.00 W/m2
16:15 65.3 °F 47.2 °F 30.16 in Calm     52% 0.00 in 211.00 W/m2
16:20 65.2 °F 48.2 °F 30.16 in Calm     54% 0.00 in 316.00 W/m2
16:25 65.0 °F 48.0 °F 30.16 in Calm     54% 0.00 in 288.00 W/m2
16:31 64.9 °F 48.8 °F 30.15 in WSW 4.0 mph 7.0 mph 56% 0.00 in 287.00 W/m2
16:36 64.8 °F 47.8 °F 30.15 in Calm   4.0 mph 54% 0.00 in 236.00 W/m2
16:41 64.7 °F 47.2 °F 30.15 in Calm   2.0 mph 53% 0.00 in 230.00 W/m2
16:46 64.5 °F 47.0 °F 30.15 in Calm   1.0 mph 53% 0.00 in 165.00 W/m2
16:51 64.4 °F 47.9 °F 30.15 in Calm     55% 0.00 in 181.00 W/m2
16:56 64.1 °F 47.1 °F 30.15 in Calm     54% 0.00 in 137.00 W/m2
17:01 64.0 °F 48.5 °F 30.15 in Calm     57% 0.00 in 160.00 W/m2
17:06 63.8 °F 47.3 °F 30.15 in Calm     55% 0.00 in 144.00 W/m2
17:11 63.6 °F 47.6 °F 30.15 in Calm     56% 0.00 in 121.00 W/m2
17:16 63.5 °F 48.0 °F 30.15 in Calm     57% 0.00 in 91.00 W/m2
17:21 63.3 °F 48.7 °F 30.15 in Calm     59% 0.00 in 74.00 W/m2
17:26 63.0 °F 48.0 °F 30.15 in Calm     58% 0.00 in 62.00 W/m2
17:31 62.9 °F 47.9 °F 30.15 in Calm     58% 0.00 in 40.00 W/m2
17:36 62.6 °F 48.1 °F 30.16 in Calm     59% 0.00 in 35.00 W/m2
17:41 62.3 °F 48.2 °F 30.16 in Calm     60% 0.00 in 30.00 W/m2
17:46 62.1 °F 48.5 °F 30.16 in Calm     61% 0.00 in 23.00 W/m2
17:51 61.8 °F 48.2 °F 30.16 in Calm     61% 0.00 in 18.00 W/m2
17:56 61.4 °F 48.3 °F 30.16 in Calm     62% 0.00 in 12.00 W/m2
18:01 60.8 °F 48.1 °F 30.16 in Calm     63% 0.00 in 7.00 W/m2
18:06 60.4 °F 48.2 °F 30.16 in Calm     64% 0.00 in 5.00 W/m2
18:11 59.6 °F 47.4 °F 30.16 in Calm     64% 0.00 in 0.00 W/m2
18:16 59.0 °F 47.7 °F 30.16 in Calm     66% 0.00 in 0.00 W/m2
18:21 58.4 °F 47.5 °F 30.16 in Calm     67% 0.00 in 0.00 W/m2
18:26 57.8 °F 47.3 °F 30.16 in Calm     68% 0.00 in 0.00 W/m2
18:31 57.3 °F 47.2 °F 30.16 in Calm     69% 0.00 in 0.00 W/m2
18:36 56.9 °F 46.8 °F 30.16 in Calm     69% 0.00 in 0.00 W/m2
18:41 56.6 °F 46.6 °F 30.16 in Calm     69% 0.00 in 0.00 W/m2
18:46 56.2 °F 46.6 °F 30.16 in Calm     70% 0.00 in 0.00 W/m2
18:51 56.0 °F 46.4 °F 30.16 in Calm     70% 0.00 in 0.00 W/m2
18:56 55.8 °F 46.5 °F 30.16 in Calm     71% 0.00 in 0.00 W/m2
18:57 55.8 °F 46.5 °F 30.16 in Calm     71% 0.00 in 0.00 W/m2
19:02 55.5 °F 46.3 °F 30.17 in Calm     71% 0.00 in 0.00 W/m2
19:07 55.3 °F 46.1 °F 30.17 in Calm     71% 0.00 in 0.00 W/m2
19:12 55.2 °F 46.0 °F 30.17 in Calm     71% 0.00 in 0.00 W/m2
19:17 55.0 °F 45.8 °F 30.17 in Calm     71% 0.00 in 0.00 W/m2
19:22 54.9 °F 46.1 °F 30.17 in Calm     72% 0.00 in 0.00 W/m2
19:27 54.8 °F 45.6 °F 30.17 in Calm     71% 0.00 in 0.00 W/m2
19:32 54.7 °F 45.9 °F 30.17 in Calm     72% 0.00 in 0.00 W/m2
19:37 54.6 °F 45.4 °F 30.17 in Calm     71% 0.00 in 0.00 W/m2
19:42 54.5 °F 45.7 °F 30.17 in Calm     72% 0.00 in 0.00 W/m2
19:47 54.4 °F 45.6 °F 30.17 in Calm     72% 0.00 in 0.00 W/m2
19:52 54.4 °F 46.3 °F 30.17 in Calm     74% 0.00 in 0.00 W/m2
19:57 54.3 °F 45.8 °F 30.18 in Calm     73% 0.00 in 0.00 W/m2
20:02 54.1 °F 45.7 °F 30.18 in Calm     73% 0.00 in 0.00 W/m2
20:07 53.9 °F 45.1 °F 30.18 in Calm     72% 0.00 in 0.00 W/m2
20:12 53.8 °F 45.4 °F 30.18 in Calm     73% 0.00 in 0.00 W/m2
20:17 53.7 °F 45.6 °F 30.18 in Calm     74% 0.00 in 0.00 W/m2
20:22 53.6 °F 45.2 °F 30.18 in Calm     73% 0.00 in 0.00 W/m2
20:27 53.6 °F 45.5 °F 30.19 in Calm     74% 0.00 in 0.00 W/m2
20:32 53.5 °F 45.4 °F 30.19 in Calm     74% 0.00 in 0.00 W/m2
20:38 53.4 °F 45.7 °F 30.19 in Calm     75% 0.00 in 0.00 W/m2
20:43 53.4 °F 45.7 °F 30.19 in Calm     75% 0.00 in 0.00 W/m2
20:48 53.3 °F 45.9 °F 30.19 in Calm     76% 0.00 in 0.00 W/m2
20:53 53.2 °F 45.8 °F 30.19 in Calm     76% 0.00 in 0.00 W/m2
20:58 53.2 °F 46.2 °F 30.20 in Calm     77% 0.00 in 0.00 W/m2
21:03 53.1 °F 46.1 °F 30.20 in Calm     77% 0.00 in 0.00 W/m2
21:08 53.1 °F 46.1 °F 30.20 in Calm     77% 0.00 in 0.00 W/m2
21:13 53.0 °F 46.0 °F 30.20 in Calm     77% 0.00 in 0.00 W/m2
21:18 53.0 °F 46.0 °F 30.20 in Calm     77% 0.00 in 0.00 W/m2
21:23 52.9 °F 46.2 °F 30.20 in Calm     78% 0.00 in 0.00 W/m2
21:28 52.8 °F 45.8 °F 30.20 in Calm     77% 0.00 in 0.00 W/m2
21:33 52.8 °F 45.8 °F 30.20 in Calm     77% 0.00 in 0.00 W/m2
21:38 52.6 °F 45.6 °F 30.20 in Calm     77% 0.00 in 0.00 W/m2
21:43 52.6 °F 46.0 °F 30.20 in Calm     78% 0.00 in 0.00 W/m2
21:48 52.5 °F 45.8 °F 30.20 in Calm     78% 0.00 in 0.00 W/m2
21:53 52.4 °F 45.4 °F 30.20 in Calm     77% 0.00 in 0.00 W/m2
21:58 52.3 °F 45.3 °F 30.21 in Calm     77% 0.00 in 0.00 W/m2
22:03 52.2 °F 45.2 °F 30.21 in Calm     77% 0.00 in 0.00 W/m2
22:08 52.1 °F 45.1 °F 30.21 in Calm     77% 0.00 in 0.00 W/m2
22:13 52.1 °F 45.1 °F 30.21 in Calm     77% 0.00 in 0.00 W/m2
22:18 52.1 °F 45.1 °F 30.21 in Calm     77% 0.00 in 0.00 W/m2
22:23 52.1 °F 45.1 °F 30.21 in Calm     77% 0.00 in 0.00 W/m2
22:28 52.0 °F 45.0 °F 30.21 in Calm     77% 0.00 in 0.00 W/m2
22:34 52.0 °F 44.7 °F 30.21 in Calm     76% 0.00 in 0.00 W/m2
22:39 52.0 °F 44.7 °F 30.21 in Calm     76% 0.00 in 0.00 W/m2
22:44 51.9 °F 44.6 °F 30.21 in Calm     76% 0.00 in 0.00 W/m2
22:49 51.8 °F 44.5 °F 30.21 in Calm     76% 0.00 in 0.00 W/m2
22:54 51.7 °F 44.4 °F 30.21 in Calm     76% 0.00 in 0.00 W/m2
22:59 51.6 °F 44.3 °F 30.21 in Calm     76% 0.00 in 0.00 W/m2
23:04 51.5 °F 44.2 °F 30.21 in Calm     76% 0.00 in 0.00 W/m2
23:09 51.4 °F 44.1 °F 30.21 in Calm     76% 0.00 in 0.00 W/m2
23:14 51.3 °F 44.0 °F 30.21 in Calm     76% 0.00 in 0.00 W/m2
23:19 51.3 °F 44.0 °F 30.21 in Calm     76% 0.00 in 0.00 W/m2
23:24 51.2 °F 43.9 °F 30.21 in Calm     76% 0.00 in 0.00 W/m2
23:29 51.1 °F 44.2 °F 30.22 in Calm     77% 0.00 in 0.00 W/m2
23:34 51.0 °F 43.7 °F 30.22 in Calm     76% 0.00 in 0.00 W/m2
23:39 51.0 °F 44.0 °F 30.22 in Calm     77% 0.00 in 0.00 W/m2
23:44 50.9 °F 44.0 °F 30.22 in Calm     77% 0.00 in 0.00 W/m2
23:49 50.8 °F 43.9 °F 30.22 in Calm     77% 0.00 in 0.00 W/m2
23:54 50.7 °F 43.8 °F 30.22 in Calm     77% 0.00 in 0.00 W/m2
23:59 50.6 °F 43.7 °F 30.22 in Calm     77% 0.00 in 0.00 W/m2
Foresthill Weather
 WU-history PHP script courtesy of   Juneau County Weather.
powered by Cumulus v1.9.3 (1059)
Ambient Weather VWS v14.00
Top Contact Website Map Copyright © 2007 - 2018 Foresthillweather.com Never base important decisions on this or any weather information obtained from the Internet